Powrót do katalogu

BREEZE-M R/B

AktywnyMEO
NORAD 40278·ROCKET BODY·🇷🇺 Russia

Wystrzelony Oct 21, 2014 z Baikonur Cosmodrome

Loading…

Następne Przeloty (najbliższe 24 godziny)

TLE

ŚwieżeSource: Space-Track

Epoka: Sep 14, 2026, 11:03 UTC

1 40278U 14064B   26257.46049537 -.00000138  00000-0  00000-0 0  9999
2 40278   9.5287  61.6886 0581720 220.0350 135.6591  0.95221888 41372

Śledź BREEZE-M R/B w czasie rzeczywistym z AllMySat

Download on the App Store